This is the latest recevied weather packets stored in our database for station/object W0AKO. If no packets are shown the sender has not sent any weather packets the latest 10 day(s).
| Time | Temp. | Humidity | Pressure | Rain* | Wind** | Luminosity | Snow |
|---|---|---|---|---|---|---|---|
| 1777986310 | 11.67° C | 10% | 1012.9 hPa | 0 mm | - | 16 W/m² | - |
| 1777986008 | 11.67° C | 10% | 1012.7 hPa | 0 mm | - | 13 W/m² | - |
| 1777985704 | 11.67° C | 10% | 1012.7 hPa | 0 mm | - | 11 W/m² | - |
| 1777985401 | 11.67° C | 10% | 1012.7 hPa | 0 mm | - | 8 W/m² | - |
| 1777985098 | 11.67° C | 10% | 1012.6 hPa | 0 mm | - | 5 W/m² | - |
| 1777984794 | 11.67° C | 10% | 1012.5 hPa | 0 mm | - | 4 W/m² | - |
| 1777984491 | 11.67° C | 10% | 1012.7 hPa | 0 mm | - | 1 W/m² | - |
| 1777984186 | 11.67° C | 10% | 1012.6 hPa | 0 mm | - | 0 W/m² | - |
| 1777983884 | 11.67° C | 10% | 1012.6 hPa | 0 mm | - | 0 W/m² | - |
| 1777983581 | 11.67° C | 10% | 1012.2 hPa | 0 mm | - | 0 W/m² | - |
| 1777983278 | 11.11° C | 10% | 1012.7 hPa | 0 mm | - | 0 W/m² | - |
| 1777982973 | 10.56° C | 10% | 1012.3 hPa | 0 mm | - | 0 W/m² | - |
| 1777982670 | 11.11° C | 10% | 1012.5 hPa | 0 mm | - | 0 W/m² | - |
| 1777982369 | 11.67° C | 10% | 1012.3 hPa | 0 mm | - | 0 W/m² | - |
| 1777982066 | 12.22° C | 10% | 1012.5 hPa | 0 mm | - | 0 W/m² | - |
| 1777981764 | 12.22° C | 10% | 1012.3 hPa | 0 mm | - | 0 W/m² | - |
| 1777981460 | 12.22° C | 10% | 1012 hPa | 0 mm | - | 0 W/m² | - |
| 1777981156 | 11.67° C | 10% | 1012.5 hPa | 0 mm | - | 0 W/m² | - |
| 1777980853 | 11.67° C | 10% | 1012.7 hPa | 0 mm | - | 0 W/m² | - |
| 1777980549 | 11.67° C | 10% | 1012.5 hPa | 0 mm | - | 0 W/m² | - |
| 1777980247 | 12.22° C | 10% | 1012.6 hPa | 0 mm | - | 0 W/m² | - |
| 1777979943 | 12.22° C | 10% | 1012.5 hPa | 0 mm | - | 0 W/m² | - |
| 1777979637 | 12.22° C | 10% | 1012.3 hPa | 0 mm | - | 0 W/m² | - |
| 1777979333 | 12.22° C | 10% | 1012.2 hPa | 0 mm | - | 0 W/m² | - |
| 1777979031 | 12.78° C | 10% | 1012.3 hPa | 0 mm | - | 0 W/m² | - |
* Rain latest hour (hover to see other rain measurements)
** Current wind speed in m/s (hover to see current wind gust speed)